When you browse on this site, cookies collect data to enhance your experience and personalize the content and advertising you see.
Visit our Privacy Policy to learn more. By continuing to use the site, you agree to this use of cookies and data.
  • In Czech Republic
  • List of Countries
  • For 7 days
  • Water Temperature
  • Satellite Maps
  • Weather Map
  • Weather Widgets
  • user-avatar
    Login

    Hourly Weather Wiktoria

    Today, 16 December, Sunday

    Time Temperature Precipitation Wind Pressure Humidity
    00:00 +18°C° 0 mm 2 mps 742 mmHg 60%
    01:00 +17°C° 0 mm 2 mps 742 mmHg 62%
    02:00 +17°C° 0 mm 2 mps 742 mmHg 64%
    03:00 +17°C° 0 mm 2 mps 742 mmHg 66%
    04:00 +17°C° 0 mm 2 mps 742 mmHg 73%
    05:00 +17°C° 0.1 mm 2 mps 742 mmHg 72%
    06:00 +18°C° 0.1 mm 2 mps 742 mmHg 70%
    07:00 +18°C° 0.1 mm 2 mps 743 mmHg 69%
    08:00 +19°C° 0.3 mm 2 mps 743 mmHg 67%
    09:00 +19°C° 0.3 mm 2 mps 743 mmHg 66%
    10:00 +20°C° 0.3 mm 2 mps 743 mmHg 64%
    11:00 +21°C° 0.1 mm 3 mps 743 mmHg 57%
    12:00 +23°C° 0.1 mm 4 mps 743 mmHg 50%
    13:00 +26°C° 0.1 mm 4 mps 742 mmHg 42%
    14:00 +26°C° 0.1 mm 4 mps 742 mmHg 41%
    15:00 +27°C° 0.1 mm 4 mps 742 mmHg 40%
    16:00 +27°C° 0.1 mm 4 mps 742 mmHg 39%
    17:00 +26°C° 0 mm 3 mps 742 mmHg 43%
    18:00 +25°C° 0 mm 2 mps 742 mmHg 47%
    19:00 +25°C° 0 mm 1 mps 742 mmHg 51%
    20:00 +24°C° 0 mm 1 mps 743 mmHg 54%
    21:00 +23°C° 0 mm 1 mps 743 mmHg 57%
    22:00 +22°C° 0 mm 1 mps 743 mmHg 60%
    23:00 +21°C° 0 mm 1 mps 743 mmHg 63%

    Tomorrow, 17 December, Monday

    Time Temperature Precipitation Wind Pressure Humidity
    00:00 +20°C° 0 mm 1 mps 743 mmHg 66%
    01:00 +19°C° 0 mm 2 mps 743 mmHg 69%
    02:00 +18°C° 0 mm 2 mps 744 mmHg 71%
    03:00 +17°C° 0 mm 2 mps 744 mmHg 74%
    04:00 +17°C° 0 mm 2 mps 744 mmHg 77%
    05:00 +18°C° 0 mm 2 mps 744 mmHg 73%
    06:00 +19°C° 0 mm 2 mps 745 mmHg 69%
    07:00 +20°C° 0 mm 2 mps 745 mmHg 65%
    08:00 +23°C° 0 mm 2 mps 745 mmHg 59%
    09:00 +25°C° 0 mm 2 mps 746 mmHg 53%
    10:00 +27°C° 0 mm 2 mps 746 mmHg 46%
    11:00 +28°C° 0 mm 2 mps 746 mmHg 43%
    12:00 +29°C° 0 mm 2 mps 746 mmHg 39%
    13:00 +30°C° 0 mm 3 mps 745 mmHg 35%
    14:00 +31°C° 0 mm 3 mps 745 mmHg 35%
    15:00 +31°C° 0 mm 3 mps 745 mmHg 34%
    16:00 +32°C° 0 mm 4 mps 745 mmHg 33%
    17:00 +29°C° 0 mm 4 mps 745 mmHg 40%
    18:00 +28°C° 0 mm 5 mps 746 mmHg 46%
    19:00 +26°C° 0 mm 6 mps 746 mmHg 53%
    20:00 +23°C° 0 mm 5 mps 747 mmHg 58%
    21:00 +21°C° 0 mm 5 mps 748 mmHg 63%
    22:00 +19°C° 0 mm 5 mps 748 mmHg 69%
    23:00 +19°C° 0 mm 5 mps 748 mmHg 72%

    Day after tomorrow, 18 December, Tuesday

    Time Temperature Precipitation Wind Pressure Humidity
    00:00 +17°C° 0 mm 5 mps 748 mmHg 75%
    01:00 +17°C° 0 mm 4 mps 748 mmHg 77%
    02:00 +17°C° 0 mm 4 mps 748 mmHg 79%
    03:00 +15°C° 0 mm 4 mps 747 mmHg 81%
    04:00 +16°C° 0 mm 3 mps 747 mmHg 83%
    05:00 +17°C° 0 mm 3 mps 748 mmHg 78%
    06:00 +18°C° 0 mm 3 mps 748 mmHg 74%
    07:00 +18°C° 0 mm 3 mps 748 mmHg 69%
    08:00 +21°C° 0 mm 3 mps 749 mmHg 61%
    09:00 +25°C° 0 mm 3 mps 749 mmHg 52%
    10:00 +27°C° 0 mm 3 mps 749 mmHg 43%
    11:00 +29°C° 0 mm 3 mps 748 mmHg 38%
    12:00 +31°C° 0 mm 3 mps 748 mmHg 32%
    13:00 +33°C° 0 mm 3 mps 747 mmHg 27%
    14:00 +33°C° 0 mm 4 mps 747 mmHg 27%
    15:00 +34°C° 0 mm 4 mps 747 mmHg 26%
    16:00 +34°C° 0 mm 5 mps 746 mmHg 25%
    17:00 +32°C° 0 mm 5 mps 747 mmHg 31%
    18:00 +29°C° 0 mm 4 mps 747 mmHg 36%
    19:00 +28°C° 0 mm 4 mps 747 mmHg 41%
    20:00 +26°C° 0 mm 4 mps 747 mmHg 46%
    21:00 +25°C° 0 mm 4 mps 747 mmHg 51%
    22:00 +22°C° 0 mm 4 mps 748 mmHg 56%
    23:00 +21°C° 0 mm 4 mps 747 mmHg 61%

    19 December, Wednesday

    Time Temperature Precipitation Wind Pressure Humidity
    00:00 +21°C° 0 mm 3 mps 747 mmHg 66%
    01:00 +20°C° 0 mm 3 mps 747 mmHg 70%
    02:00 +19°C° 0 mm 3 mps 747 mmHg 71%
    03:00 +19°C° 0 mm 3 mps 746 mmHg 72%
    04:00 +19°C° 0 mm 3 mps 746 mmHg 74%
    05:00 +20°C° 0 mm 3 mps 746 mmHg 70%
    06:00 +21°C° 0 mm 3 mps 747 mmHg 66%
    07:00 +22°C° 0 mm 3 mps 747 mmHg 62%
    08:00 +25°C° 0 mm 3 mps 747 mmHg 57%
    09:00 +27°C° 0 mm 3 mps 746 mmHg 52%
    10:00 +29°C° 0 mm 3 mps 746 mmHg 47%
    11:00 +31°C° 0 mm 3 mps 745 mmHg 41%
    12:00 +34°C° 0 mm 3 mps 745 mmHg 35%
    13:00 +36°C° 0 mm 3 mps 744 mmHg 29%
    14:00 +37°C° 0 mm 3 mps 743 mmHg 27%
    15:00 +38°C° 0 mm 3 mps 742 mmHg 25%
    16:00 +39°C° 0 mm 3 mps 741 mmHg 23%
    17:00 +38°C° 0 mm 3 mps 741 mmHg 26%
    18:00 +36°C° 0 mm 3 mps 740 mmHg 30%
    19:00 +35°C° 0 mm 3 mps 740 mmHg 33%
    20:00 +34°C° 0 mm 4 mps 739 mmHg 34%
    21:00 +33°C° 0 mm 4 mps 739 mmHg 35%
    22:00 +32°C° 0 mm 5 mps 739 mmHg 35%
    23:00 +30°C° 0 mm 4 mps 739 mmHg 38%

    20 December, Thursday

    Time Temperature Precipitation Wind Pressure Humidity
    00:00 +29°C° 0 mm 3 mps 739 mmHg 41%
    01:00 +27°C° 0 mm 3 mps 739 mmHg 44%
    02:00 +26°C° 0 mm 3 mps 739 mmHg 49%
    03:00 +24°C° 0 mm 3 mps 739 mmHg 55%
    04:00 +21°C° 0 mm 3 mps 739 mmHg 60%
    05:00 +22°C° 0 mm 3 mps 739 mmHg 61%
    06:00 +22°C° 0 mm 4 mps 740 mmHg 61%
    07:00 +22°C° 0 mm 5 mps 740 mmHg 62%
    08:00 +23°C° 0 mm 5 mps 741 mmHg 60%
    09:00 +24°C° 0 mm 6 mps 741 mmHg 58%
    10:00 +24°C° 0 mm 6 mps 742 mmHg 57%
    11:00 +24°C° 0 mm 6 mps 742 mmHg 56%
    12:00 +24°C° 0 mm 6 mps 742 mmHg 56%
    13:00 +24°C° 0 mm 6 mps 743 mmHg 56%
    14:00 +24°C° 0 mm 7 mps 743 mmHg 53%
    15:00 +24°C° 0 mm 7 mps 743 mmHg 49%
    16:00 +24°C° 0 mm 7 mps 743 mmHg 45%
    17:00 +23°C° 0 mm 7 mps 743 mmHg 49%
    18:00 +22°C° 0 mm 7 mps 744 mmHg 53%
    19:00 +21°C° 0 mm 7 mps 744 mmHg 57%
    20:00 +19°C° 0 mm 6 mps 745 mmHg 62%
    21:00 +17°C° 0 mm 5 mps 745 mmHg 66%
    22:00 +15°C° 0 mm 4 mps 746 mmHg 71%
    23:00 +15°C° 0 mm 4 mps 746 mmHg 72%

    21 December, Friday

    Time Temperature Precipitation Wind Pressure Humidity
    00:00 +14°C° 0 mm 4 mps 746 mmHg 73%
    01:00 +14°C° 0 mm 4 mps 745 mmHg 74%
    02:00 +13°C° 0 mm 4 mps 746 mmHg 75%
    03:00 +13°C° 0 mm 4 mps 746 mmHg 76%
    04:00 +13°C° 0 mm 4 mps 746 mmHg 77%
    05:00 +13°C° 0 mm 5 mps 746 mmHg 73%
    06:00 +14°C° 0 mm 5 mps 747 mmHg 69%
    07:00 +15°C° 0 mm 6 mps 747 mmHg 66%
    08:00 +16°C° 0 mm 6 mps 747 mmHg 60%
    09:00 +19°C° 0 mm 6 mps 747 mmHg 53%
    10:00 +20°C° 0 mm 5 mps 747 mmHg 47%
    11:00 +21°C° 0 mm 6 mps 746 mmHg 44%
    12:00 +22°C° 0 mm 6 mps 746 mmHg 41%
    13:00 +23°C° 0 mm 6 mps 745 mmHg 37%
    14:00 +23°C° 0 mm 6 mps 745 mmHg 37%
    15:00 +23°C° 0 mm 7 mps 745 mmHg 36%
    16:00 +23°C° 0 mm 7 mps 745 mmHg 36%
    17:00 +22°C° 0 mm 7 mps 745 mmHg 39%
    18:00 +20°C° 0 mm 7 mps 745 mmHg 43%
    19:00 +18°C° 0 mm 7 mps 746 mmHg 47%
    20:00 +17°C° 0 mm 7 mps 747 mmHg 52%
    21:00 +15°C° 0 mm 6 mps 747 mmHg 57%
    22:00 +14°C° 0 mm 6 mps 748 mmHg 62%
    23:00 +13°C° 0 mm 5 mps 748 mmHg 66%
    Show more